Location: Faicchio
(41.2833°N, 14.4833°E)
Time: 06:10:59
(UTC+00:00)

Cosmos 990 Rocket - Pass Details

Date: 15 June 2025
Orbit: 742 x 765 km, 74.0° (Epoch: 16 July)

Event Time Altitude Azimuth Distance (km) Brightness Sun altitude
Exits shadow 02:42:05 - 203° (SSW) 2,548 6.1 -7.8°
Reaches altitude 10° 02:42:52 10° 204° (SSW) 2,246 5.9 -7.7°
Maximum altitude 02:47:57 77° 290° (WNW) 768 4.0 -7.0°
Drops below altitude 10° 02:53:05 10° 17° (NNE) 2,269 7.4 -6.2°
Sets 02:55:28 0° 19° (NNE) 3,199 8.3 -5.9°
